Data supplied by UK-AIR on 15/5/2021
All Data GMT hour ending 
Status: R =Ratified P=Provisional,P*=As supplied
,,West Bromwich Kenrick Park,,,,,,,,,,,,,,,,,,,,,,,
Date,time,"Nitric oxide",status,unit,"Nitrogen dioxide",status,unit,"Nitrogen oxides as nitrogen dioxide",status,unit
 
01-01-2020,01:00,8.57106,R,ugm-3,64.20220,R,ugm-3,77.34431,R,ugm-3
01-01-2020,02:00,0.99244,R,ugm-3,16.85713,R,ugm-3,18.37885,R,ugm-3
01-01-2020,03:00,3.18031,R,ugm-3,22.79628,R,ugm-3,27.67270,R,ugm-3
01-01-2020,04:00,1.08266,R,ugm-3,17.24092,R,ugm-3,18.90097,R,ugm-3
01-01-2020,05:00,0.84583,R,ugm-3,18.38724,R,ugm-3,19.68416,R,ugm-3
01-01-2020,06:00,0.77816,R,ugm-3,15.88037,R,ugm-3,17.07353,R,ugm-3
01-01-2020,07:00,1.08266,R,ugm-3,16.66658,R,ugm-3,18.32663,R,ugm-3
01-01-2020,08:00,1.18416,R,ugm-3,18.59945,R,ugm-3,20.41514,R,ugm-3
01-01-2020,09:00,2.77432,R,ugm-3,17.25771,R,ugm-3,21.51160,R,ugm-3
01-01-2020,10:00,2.67282,R,ugm-3,18.92751,R,ugm-3,23.02577,R,ugm-3
01-01-2020,11:00,2.46982,R,ugm-3,17.56797,R,ugm-3,21.35497,R,ugm-3
01-01-2020,12:00,2.94348,R,ugm-3,16.37178,R,ugm-3,20.88505,R,ugm-3
01-01-2020,13:00,4.36447,R,ugm-3,17.43014,R,ugm-3,24.12224,R,ugm-3
01-01-2020,14:00,4.49981,R,ugm-3,19.88547,R,ugm-3,26.78508,R,ugm-3
01-01-2020,15:00,3.62015,R,ugm-3,19.14576,R,ugm-3,24.69657,R,ugm-3
01-01-2020,16:00,3.41715,R,ugm-3,18.46498,R,ugm-3,23.70454,R,ugm-3
01-01-2020,17:00,4.93964,R,ugm-3,25.99872,R,ugm-3,33.57272,R,ugm-3
01-01-2020,18:00,2.67282,R,ugm-3,23.15673,R,ugm-3,27.25499,R,ugm-3
01-01-2020,19:00,3.31565,R,ugm-3,20.13478,R,ugm-3,25.21870,R,ugm-3
01-01-2020,20:00,9.87927,R,ugm-3,25.89112,R,ugm-3,41.03913,R,ugm-3
01-01-2020,21:00,2.94348,R,ugm-3,22.32402,R,ugm-3,26.83729,R,ugm-3
01-01-2020,22:00,1.89466,R,ugm-3,16.10030,R,ugm-3,19.00540,R,ugm-3
01-01-2020,23:00,1.35333,R,ugm-3,13.64093,R,ugm-3,15.71600,R,ugm-3
01-01-2020,24:00,1.69166,R,ugm-3,11.86906,R,ugm-3,14.46290,R,ugm-3
02-01-2020,01:00,0.90249,R,ugm-3,9.61736,R,ugm-3,11.00115,R,ugm-3
02-01-2020,02:00,0.67687,R,ugm-3,7.24783,R,ugm-3,8.28568,R,ugm-3
02-01-2020,03:00,0.57534,R,ugm-3,7.10759,R,ugm-3,7.98976,R,ugm-3
02-01-2020,04:00,0.71071,R,ugm-3,5.33340,R,ugm-3,6.42314,R,ugm-3
02-01-2020,05:00,0.74455,R,ugm-3,5.75150,R,ugm-3,6.89313,R,ugm-3
02-01-2020,06:00,1.62448,R,ugm-3,7.84886,R,ugm-3,10.33969,R,ugm-3
02-01-2020,07:00,2.30135,R,ugm-3,10.83200,R,ugm-3,14.36068,R,ugm-3
02-01-2020,08:00,3.11359,R,ugm-3,15.80085,R,ugm-3,20.57494,R,ugm-3
02-01-2020,09:00,3.99351,R,ugm-3,15.02607,R,ugm-3,21.14937,R,ugm-3
02-01-2020,10:00,3.92582,R,ugm-3,13.61546,R,ugm-3,19.63497,R,ugm-3
02-01-2020,11:00,3.51971,R,ugm-3,13.08931,R,ugm-3,18.48612,R,ugm-3
02-01-2020,12:00,3.48586,R,ugm-3,14.76004,R,ugm-3,20.10496,R,ugm-3
02-01-2020,13:00,4.02736,R,ugm-3,13.92977,R,ugm-3,20.10496,R,ugm-3
02-01-2020,14:00,3.68892,R,ugm-3,18.15636,R,ugm-3,23.81262,R,ugm-3
02-01-2020,15:00,4.23041,R,ugm-3,18.73604,R,ugm-3,25.22258,R,ugm-3
02-01-2020,16:00,3.11359,R,ugm-3,16.11417,R,ugm-3,20.88827,R,ugm-3
02-01-2020,17:00,2.60594,R,ugm-3,21.33131,R,ugm-3,25.32702,R,ugm-3
02-01-2020,18:00,2.36903,R,ugm-3,20.65014,R,ugm-3,24.28261,R,ugm-3
02-01-2020,19:00,1.86138,R,ugm-3,16.78089,R,ugm-3,19.63497,R,ugm-3
02-01-2020,20:00,1.65832,R,ugm-3,15.68229,R,ugm-3,18.22501,R,ugm-3
02-01-2020,21:00,1.28605,R,ugm-3,13.38097,R,ugm-3,15.35288,R,ugm-3
02-01-2020,22:00,0.98146,R,ugm-3,9.72257,R,ugm-3,11.22744,R,ugm-3
02-01-2020,23:00,1.25220,R,ugm-3,9.09854,R,ugm-3,11.01856,R,ugm-3
02-01-2020,24:00,1.04914,R,ugm-3,8.57437,R,ugm-3,10.18303,R,ugm-3
03-01-2020,01:00,1.17359,R,ugm-3,7.74097,R,ugm-3,9.54044,R,ugm-3
03-01-2020,02:00,0.58679,R,ugm-3,6.20337,R,ugm-3,7.10310,R,ugm-3
03-01-2020,03:00,0.64322,R,ugm-3,7.63148,R,ugm-3,8.61774,R,ugm-3
03-01-2020,04:00,0.64322,R,ugm-3,9.45949,R,ugm-3,10.44574,R,ugm-3
03-01-2020,05:00,1.15102,R,ugm-3,10.77002,R,ugm-3,12.53489,R,ugm-3
03-01-2020,06:00,1.08331,R,ugm-3,10.45600,R,ugm-3,12.11706,R,ugm-3
03-01-2020,07:00,0.60936,R,ugm-3,12.38398,R,ugm-3,13.31832,R,ugm-3
03-01-2020,08:00,0.91404,R,ugm-3,18.02756,R,ugm-3,19.42908,R,ugm-3
03-01-2020,09:00,1.76038,R,ugm-3,21.69159,R,ugm-3,24.39080,R,ugm-3
03-01-2020,10:00,2.16662,R,ugm-3,28.90300,R,ugm-3,32.22511,R,ugm-3
03-01-2020,11:00,3.89315,R,ugm-3,22.12962,R,ugm-3,28.09904,R,ugm-3
03-01-2020,12:00,2.77599,R,ugm-3,17.83629,R,ugm-3,22.09274,R,ugm-3
03-01-2020,13:00,5.04417,R,ugm-3,15.55971,R,ugm-3,23.29400,R,ugm-3
03-01-2020,14:00,2.84369,R,ugm-3,13.81532,R,ugm-3,18.17559,R,ugm-3
03-01-2020,15:00,2.64057,R,ugm-3,17.41717,R,ugm-3,21.46600,R,ugm-3
03-01-2020,16:00,2.91140,R,ugm-3,22.79930,R,ugm-3,27.26338,R,ugm-3
03-01-2020,17:00,4.90876,R,ugm-3,41.98615,R,ugm-3,49.51281,R,ugm-3
03-01-2020,18:00,4.23169,R,ugm-3,37.38361,R,ugm-3,43.87211,R,ugm-3
03-01-2020,19:00,3.89315,R,ugm-3,28.97158,R,ugm-3,34.94100,R,ugm-3
03-01-2020,20:00,1.99736,R,ugm-3,19.60469,R,ugm-3,22.66725,R,ugm-3
03-01-2020,21:00,1.45570,R,ugm-3,13.80217,R,ugm-3,16.03421,R,ugm-3
03-01-2020,22:00,1.32029,R,ugm-3,10.04042,R,ugm-3,12.06483,R,ugm-3
03-01-2020,23:00,2.09892,R,ugm-3,11.14460,R,ugm-3,14.36289,R,ugm-3
03-01-2020,24:00,1.11717,R,ugm-3,7.37483,R,ugm-3,9.08779,R,ugm-3
04-01-2020,01:00,0.72243,R,ugm-3,7.59842,R,ugm-3,8.70612,R,ugm-3
04-01-2020,02:00,1.79478,R,ugm-3,10.72513,R,ugm-3,13.47708,R,ugm-3
04-01-2020,03:00,0.50796,R,ugm-3,11.70573,R,ugm-3,12.48458,R,ugm-3
04-01-2020,04:00,0.84659,R,ugm-3,11.23873,R,ugm-3,12.53682,R,ugm-3
04-01-2020,05:00,0.60955,R,ugm-3,4.75918,R,ugm-3,5.69380,R,ugm-3
04-01-2020,06:00,0.81273,R,ugm-3,6.79829,R,ugm-3,8.04446,R,ugm-3
04-01-2020,07:00,0.64341,R,ugm-3,7.99817,R,ugm-3,8.98472,R,ugm-3
04-01-2020,08:00,0.88046,R,ugm-3,8.47049,R,ugm-3,9.82051,R,ugm-3
04-01-2020,09:00,1.21909,R,ugm-3,8.36915,R,ugm-3,10.23840,R,ugm-3
04-01-2020,10:00,1.72705,R,ugm-3,10.93345,R,ugm-3,13.58155,R,ugm-3
04-01-2020,11:00,3.69114,R,ugm-3,17.89910,R,ugm-3,23.55877,R,ugm-3
04-01-2020,12:00,7.75478,R,ugm-3,19.24259,R,ugm-3,31.13309,R,ugm-3
04-01-2020,13:00,3.04773,R,ugm-3,12.87842,R,ugm-3,17.55154,R,ugm-3
04-01-2020,14:00,5.58751,R,ugm-3,13.00638,R,ugm-3,21.57377,R,ugm-3
04-01-2020,15:00,3.55569,R,ugm-3,15.44272,R,ugm-3,20.89469,R,ugm-3
04-01-2020,16:00,3.96205,R,ugm-3,26.78185,R,ugm-3,32.85691,R,ugm-3
04-01-2020,17:00,4.02978,R,ugm-3,34.40903,R,ugm-3,40.58794,R,ugm-3
04-01-2020,18:00,4.40228,R,ugm-3,35.19603,R,ugm-3,41.94610,R,ugm-3
04-01-2020,19:00,4.26682,R,ugm-3,41.46319,R,ugm-3,48.00556,R,ugm-3
04-01-2020,20:00,2.47205,R,ugm-3,26.61136,R,ugm-3,30.40178,R,ugm-3
04-01-2020,21:00,2.70909,R,ugm-3,27.50157,R,ugm-3,31.65546,R,ugm-3
04-01-2020,22:00,2.67523,R,ugm-3,29.38178,R,ugm-3,33.48375,R,ugm-3
04-01-2020,23:00,1.62546,R,ugm-3,20.12617,R,ugm-3,22.61850,R,ugm-3
04-01-2020,24:00,1.08364,R,ugm-3,11.13645,R,ugm-3,12.79800,R,ugm-3
05-01-2020,01:00,0.81297,R,ugm-3,9.82935,R,ugm-3,11.07589,R,ugm-3
05-01-2020,02:00,0.63231,R,ugm-3,5.92678,R,ugm-3,6.89631,R,ugm-3
05-01-2020,03:00,0.94847,R,ugm-3,5.54650,R,ugm-3,7.00080,R,ugm-3
05-01-2020,04:00,0.44036,R,ugm-3,7.00477,R,ugm-3,7.67998,R,ugm-3
05-01-2020,05:00,0.64360,R,ugm-3,4.96906,R,ugm-3,5.95590,R,ugm-3
05-01-2020,06:00,0.71135,R,ugm-3,6.32803,R,ugm-3,7.41876,R,ugm-3
05-01-2020,07:00,0.71135,R,ugm-3,6.06681,R,ugm-3,7.15753,R,ugm-3
05-01-2020,08:00,0.81297,R,ugm-3,6.69466,R,ugm-3,7.94121,R,ugm-3
05-01-2020,09:00,0.91459,R,ugm-3,7.27027,R,ugm-3,8.67263,R,ugm-3
05-01-2020,10:00,1.25333,R,ugm-3,8.26598,R,ugm-3,10.18773,R,ugm-3
05-01-2020,11:00,1.82919,R,ugm-3,12.45076,R,ugm-3,15.25547,R,ugm-3
05-01-2020,12:00,1.96468,R,ugm-3,13.34014,R,ugm-3,16.35261,R,ugm-3
05-01-2020,13:00,2.60829,R,ugm-3,12.19656,R,ugm-3,16.19588,R,ugm-3
05-01-2020,14:00,2.74378,R,ugm-3,15.43696,R,ugm-3,19.64403,R,ugm-3
05-01-2020,15:00,2.57441,R,ugm-3,17.68195,R,ugm-3,21.62933,R,ugm-3
05-01-2020,16:00,2.84540,R,ugm-3,16.95297,R,ugm-3,21.31586,R,ugm-3
05-01-2020,17:00,1.45658,R,ugm-3,15.84330,R,ugm-3,18.07669,R,ugm-3
05-01-2020,18:00,1.59207,R,ugm-3,15.89677,R,ugm-3,18.33791,R,ugm-3
05-01-2020,19:00,1.62595,R,ugm-3,13.38933,R,ugm-3,15.88241,R,ugm-3
05-01-2020,20:00,2.13405,R,ugm-3,16.42411,R,ugm-3,19.69628,R,ugm-3
05-01-2020,21:00,1.52432,R,ugm-3,13.80637,R,ugm-3,16.14363,R,ugm-3
05-01-2020,22:00,1.52432,R,ugm-3,12.70923,R,ugm-3,15.04649,R,ugm-3
05-01-2020,23:00,0.94847,R,ugm-3,9.04690,R,ugm-3,10.50120,R,ugm-3
05-01-2020,24:00,1.76144,R,ugm-3,8.16607,R,ugm-3,10.86691,R,ugm-3
06-01-2020,01:00,0.49697,R,ugm-3,3.83624,R,ugm-3,4.59825,R,ugm-3
06-01-2020,02:00,0.67768,R,ugm-3,2.77536,R,ugm-3,3.81445,R,ugm-3
06-01-2020,03:00,0.54215,R,ugm-3,2.40840,R,ugm-3,3.23967,R,ugm-3
06-01-2020,04:00,0.60991,R,ugm-3,3.29729,R,ugm-3,4.23248,R,ugm-3
06-01-2020,05:00,0.88099,R,ugm-3,3.87446,R,ugm-3,5.22528,R,ugm-3
06-01-2020,06:00,1.45701,R,ugm-3,7.11920,R,ugm-3,9.35325,R,ugm-3
06-01-2020,07:00,3.04956,R,ugm-3,14.23958,R,ugm-3,18.91551,R,ugm-3
06-01-2020,08:00,5.35368,R,ugm-3,18.64908,R,ugm-3,26.85794,R,ugm-3
06-01-2020,09:00,5.96359,R,ugm-3,18.13192,R,ugm-3,27.27596,R,ugm-3
06-01-2020,10:00,3.99832,R,ugm-3,16.86056,R,ugm-3,22.99123,R,ugm-3
06-01-2020,11:00,4.57435,R,ugm-3,15.87283,R,ugm-3,22.88673,R,ugm-3
06-01-2020,12:00,4.43881,R,ugm-3,18.48427,R,ugm-3,25.29036,R,ugm-3
06-01-2020,13:00,4.37104,R,ugm-3,18.32692,R,ugm-3,25.02909,R,ugm-3
06-01-2020,14:00,4.06609,R,ugm-3,18.58550,R,ugm-3,24.82008,R,ugm-3
06-01-2020,15:00,3.93055,R,ugm-3,18.68882,R,ugm-3,24.71557,R,ugm-3
06-01-2020,16:00,4.94707,R,ugm-3,23.34826,R,ugm-3,30.93366,R,ugm-3
06-01-2020,17:00,5.99748,R,ugm-3,37.88377,R,ugm-3,47.07977,R,ugm-3
06-01-2020,18:00,10.36852,R,ugm-3,61.95850,R,ugm-3,77.85667,R,ugm-3
06-01-2020,19:00,4.43881,R,ugm-3,38.28809,R,ugm-3,45.09417,R,ugm-3
06-01-2020,20:00,3.15122,R,ugm-3,31.48390,R,ugm-3,36.31570,R,ugm-3
06-01-2020,21:00,4.91319,R,ugm-3,38.50127,R,ugm-3,46.03472,R,ugm-3
06-01-2020,22:00,2.74461,R,ugm-3,33.62269,R,ugm-3,37.83103,R,ugm-3
06-01-2020,23:00,1.55867,R,ugm-3,21.17609,R,ugm-3,23.56601,R,ugm-3
06-01-2020,24:00,1.66032,R,ugm-3,17.46704,R,ugm-3,20.01282,R,ugm-3
07-01-2020,01:00,1.49135,R,ugm-3,11.78889,R,ugm-3,14.07559,R,ugm-3
07-01-2020,02:00,1.08462,R,ugm-3,10.56598,R,ugm-3,12.22904,R,ugm-3
07-01-2020,03:00,0.71178,R,ugm-3,7.42714,R,ugm-3,8.51852,R,ugm-3
07-01-2020,04:00,0.71178,R,ugm-3,8.57688,R,ugm-3,9.66825,R,ugm-3
07-01-2020,05:00,1.15240,R,ugm-3,12.08213,R,ugm-3,13.84912,R,ugm-3
07-01-2020,06:00,1.86418,R,ugm-3,9.31840,R,ugm-3,12.17678,R,ugm-3
07-01-2020,07:00,3.76226,R,ugm-3,18.27127,R,ugm-3,24.03998,R,ugm-3
07-01-2020,08:00,6.81274,R,ugm-3,24.62097,R,ugm-3,35.06702,R,ugm-3
07-01-2020,09:00,5.25361,R,ugm-3,22.30813,R,ugm-3,30.36354,R,ugm-3
07-01-2020,10:00,5.01635,R,ugm-3,24.60557,R,ugm-3,32.29720,R,ugm-3
07-01-2020,11:00,4.10120,R,ugm-3,21.82791,R,ugm-3,28.11633,R,ugm-3
07-01-2020,12:00,3.83005,R,ugm-3,17.27889,R,ugm-3,23.15155,R,ugm-3
07-01-2020,13:00,4.40625,R,ugm-3,19.26974,R,ugm-3,26.02590,R,ugm-3
07-01-2020,14:00,4.77909,R,ugm-3,18.59354,R,ugm-3,25.92137,R,ugm-3
07-01-2020,15:00,3.55889,R,ugm-3,16.91074,R,ugm-3,22.36764,R,ugm-3
07-01-2020,16:00,3.28774,R,ugm-3,18.26720,R,ugm-3,23.30833,R,ugm-3
07-01-2020,17:00,2.88101,R,ugm-3,17.32302,R,ugm-3,21.74051,R,ugm-3
07-01-2020,18:00,3.32164,R,ugm-3,16.54288,R,ugm-3,21.63598,R,ugm-3
07-01-2020,19:00,2.03365,R,ugm-3,13.50072,R,ugm-3,16.61894,R,ugm-3
07-01-2020,20:00,2.03365,R,ugm-3,12.03742,R,ugm-3,15.15564,R,ugm-3
07-01-2020,21:00,1.76250,R,ugm-3,9.52657,R,ugm-3,12.22904,R,ugm-3
07-01-2020,22:00,1.52524,R,ugm-3,9.47228,R,ugm-3,11.81095,R,ugm-3
07-01-2020,23:00,1.11851,R,ugm-3,7.37836,R,ugm-3,9.09339,R,ugm-3
07-01-2020,24:00,0.84736,R,ugm-3,4.86752,R,ugm-3,6.16678,R,ugm-3
08-01-2020,01:00,0.81371,R,ugm-3,4.39737,R,ugm-3,5.64504,R,ugm-3
08-01-2020,02:00,0.76850,R,ugm-3,4.95453,R,ugm-3,6.13288,R,ugm-3
08-01-2020,03:00,0.74590,R,ugm-3,5.70353,R,ugm-3,6.84722,R,ugm-3
08-01-2020,04:00,0.77980,R,ugm-3,7.53322,R,ugm-3,8.72890,R,ugm-3
08-01-2020,05:00,1.25446,R,ugm-3,12.08457,R,ugm-3,14.00806,R,ugm-3
08-01-2020,06:00,2.30550,R,ugm-3,17.89519,R,ugm-3,21.43024,R,ugm-3
08-01-2020,07:00,7.49287,R,ugm-3,34.45542,R,ugm-3,45.94433,R,ugm-3
08-01-2020,08:00,14.44328,R,ugm-3,47.84196,R,ugm-3,69.98801,R,ugm-3
08-01-2020,09:00,16.57926,R,ugm-3,51.62314,R,ugm-3,77.04431,R,ugm-3
08-01-2020,10:00,13.46005,R,ugm-3,50.13359,R,ugm-3,70.77205,R,ugm-3
08-01-2020,11:00,10.39735,R,ugm-3,39.88077,R,ugm-3,55.82315,R,ugm-3
08-01-2020,12:00,11.59531,R,ugm-3,34.75099,R,ugm-3,52.53021,R,ugm-3
08-01-2020,13:00,7.05212,R,ugm-3,33.56317,R,ugm-3,44.37627,R,ugm-3
08-01-2020,14:00,10.95112,R,ugm-3,45.56527,R,ugm-3,62.35676,R,ugm-3
08-01-2020,15:00,11.76483,R,ugm-3,50.22399,R,ugm-3,68.26314,R,ugm-3
08-01-2020,16:00,11.39188,R,ugm-3,57.01583,R,ugm-3,74.48314,R,ugm-3
08-01-2020,17:00,13.56176,R,ugm-3,58.13158,R,ugm-3,78.92599,R,ugm-3
08-01-2020,18:00,7.35726,R,ugm-3,49.50772,R,ugm-3,60.78869,R,ugm-3
08-01-2020,19:00,3.76339,R,ugm-3,35.94011,R,ugm-3,41.71056,R,ugm-3
08-01-2020,20:00,2.84797,R,ugm-3,24.38105,R,ugm-3,28.74788,R,ugm-3
08-01-2020,21:00,2.78016,R,ugm-3,31.90720,R,ugm-3,36.17006,R,ugm-3
08-01-2020,22:00,1.52570,R,ugm-3,29.38783,R,ugm-3,31.72720,R,ugm-3
08-01-2020,23:00,1.08494,R,ugm-3,29.22735,R,ugm-3,30.89090,R,ugm-3
08-01-2020,24:00,0.84761,R,ugm-3,19.76470,R,ugm-3,21.06435,R,ugm-3
09-01-2020,01:00,0.63307,R,ugm-3,20.63709,R,ugm-3,21.60779,R,ugm-3
09-01-2020,02:00,1.31136,R,ugm-3,11.44186,R,ugm-3,13.45259,R,ugm-3
09-01-2020,03:00,1.01744,R,ugm-3,5.54961,R,ugm-3,7.10966,R,ugm-3
09-01-2020,04:00,0.84787,R,ugm-3,3.87537,R,ugm-3,5.17541,R,ugm-3
09-01-2020,05:00,0.84787,R,ugm-3,3.77082,R,ugm-3,5.07086,R,ugm-3
09-01-2020,06:00,0.81395,R,ugm-3,5.02519,R,ugm-3,6.27323,R,ugm-3
09-01-2020,07:00,1.72965,R,ugm-3,9.68527,R,ugm-3,12.33735,R,ugm-3
09-01-2020,08:00,3.12014,R,ugm-3,20.09965,R,ugm-3,24.88381,R,ugm-3
09-01-2020,09:00,4.17150,R,ugm-3,27.53151,R,ugm-3,33.92771,R,ugm-3
09-01-2020,10:00,4.74804,R,ugm-3,26.75203,R,ugm-3,34.03226,R,ugm-3
09-01-2020,11:00,4.30715,R,ugm-3,26.74845,R,ugm-3,33.35266,R,ugm-3
09-01-2020,12:00,6.51160,R,ugm-3,27.70733,R,ugm-3,37.69165,R,ugm-3
09-01-2020,13:00,6.10463,R,ugm-3,27.86086,R,ugm-3,37.22115,R,ugm-3
09-01-2020,14:00,6.34203,R,ugm-3,32.82909,R,ugm-3,42.55340,R,ugm-3
09-01-2020,15:00,7.12206,R,ugm-3,37.33123,R,ugm-3,48.25158,R,ugm-3
09-01-2020,16:00,4.10367,R,ugm-3,39.29326,R,ugm-3,45.58546,R,ugm-3
09-01-2020,17:00,5.25676,R,ugm-3,44.79169,R,ugm-3,52.85195,R,ugm-3
09-01-2020,18:00,1.35658,R,ugm-3,26.98589,R,ugm-3,29.06596,R,ugm-3
09-01-2020,19:00,2.74708,R,ugm-3,33.06130,R,ugm-3,37.27343,R,ugm-3
09-01-2020,20:00,2.00096,R,ugm-3,27.87983,R,ugm-3,30.94793,R,ugm-3
09-01-2020,21:00,1.96705,R,ugm-3,23.27919,R,ugm-3,26.29528,R,ugm-3
09-01-2020,22:00,1.28875,R,ugm-3,19.09153,R,ugm-3,21.06759,R,ugm-3
09-01-2020,23:00,0.91569,R,ugm-3,18.40890,R,ugm-3,19.81295,R,ugm-3
09-01-2020,24:00,0.81395,R,ugm-3,17.15343,R,ugm-3,18.40147,R,ugm-3
10-01-2020,01:00,0.76896,R,ugm-3,16.24925,R,ugm-3,17.42831,R,ugm-3
10-01-2020,02:00,0.22617,R,ugm-3,10.94676,R,ugm-3,11.29355,R,ugm-3
10-01-2020,03:00,0.27140,R,ugm-3,7.16518,R,ugm-3,7.58132,R,ugm-3
10-01-2020,04:00,0.67850,R,ugm-3,9.46893,R,ugm-3,10.50927,R,ugm-3
10-01-2020,05:00,0.40710,R,ugm-3,7.79367,R,ugm-3,8.41787,R,ugm-3
10-01-2020,06:00,0.74635,R,ugm-3,12.65884,R,ugm-3,13.80322,R,ugm-3
10-01-2020,07:00,2.23904,R,ugm-3,27.15355,R,ugm-3,30.58669,R,ugm-3
10-01-2020,08:00,8.99007,R,ugm-3,51.51931,R,ugm-3,65.30388,R,ugm-3
10-01-2020,09:00,9.36324,R,ugm-3,54.81620,R,ugm-3,69.17297,R,ugm-3
10-01-2020,10:00,28.97176,R,ugm-3,62.44766,R,ugm-3,106.87041,R,ugm-3
10-01-2020,11:00,22.52605,R,ugm-3,51.88754,R,ugm-3,86.42700,R,ugm-3
10-01-2020,12:00,18.25153,R,ugm-3,52.27209,R,ugm-3,80.25737,R,ugm-3
10-01-2020,13:00,11.02555,R,ugm-3,44.00634,R,ugm-3,60.91195,R,ugm-3
10-01-2020,14:00,8.58297,R,ugm-3,36.35347,R,ugm-3,49.51383,R,ugm-3
10-01-2020,15:00,6.78496,R,ugm-3,32.26105,R,ugm-3,42.66451,R,ugm-3
10-01-2020,16:00,6.88673,R,ugm-3,36.65379,R,ugm-3,47.21330,R,ugm-3
10-01-2020,17:00,6.75103,R,ugm-3,48.67826,R,ugm-3,59.02969,R,ugm-3
10-01-2020,18:00,5.52974,R,ugm-3,43.38784,R,ugm-3,51.86666,R,ugm-3
10-01-2020,19:00,4.51200,R,ugm-3,43.58895,R,ugm-3,50.50725,R,ugm-3
10-01-2020,20:00,3.01931,R,ugm-3,30.97650,R,ugm-3,35.60604,R,ugm-3
10-01-2020,21:00,1.22129,R,ugm-3,17.36824,R,ugm-3,19.24086,R,ugm-3
10-01-2020,22:00,0.88204,R,ugm-3,15.90158,R,ugm-3,17.25403,R,ugm-3
10-01-2020,23:00,1.11952,R,ugm-3,13.08007,R,ugm-3,14.79664,R,ugm-3
10-01-2020,24:00,0.88204,R,ugm-3,8.58169,R,ugm-3,9.93414,R,ugm-3
11-01-2020,01:00,0.63345,R,ugm-3,6.76808,R,ugm-3,7.73936,R,ugm-3
11-01-2020,02:00,0.49771,R,ugm-3,3.76891,R,ugm-3,4.53206,R,ugm-3
11-01-2020,03:00,0.50902,R,ugm-3,3.50753,R,ugm-3,4.28802,R,ugm-3
11-01-2020,04:00,0.50902,R,ugm-3,2.93231,R,ugm-3,3.71280,R,ugm-3
11-01-2020,05:00,0.37328,R,ugm-3,2.35605,R,ugm-3,2.92841,R,ugm-3
11-01-2020,06:00,0.67870,R,ugm-3,3.66571,R,ugm-3,4.70637,R,ugm-3
11-01-2020,07:00,0.54296,R,ugm-3,3.66467,R,ugm-3,4.49720,R,ugm-3
11-01-2020,08:00,0.81444,R,ugm-3,5.02637,R,ugm-3,6.27516,R,ugm-3
11-01-2020,09:00,1.15379,R,ugm-3,7.17298,R,ugm-3,8.94210,R,ugm-3
11-01-2020,10:00,1.69675,R,ugm-3,7.96154,R,ugm-3,10.56318,R,ugm-3
11-01-2020,11:00,1.45920,R,ugm-3,10.41749,R,ugm-3,12.65490,R,ugm-3
11-01-2020,12:00,1.42527,R,ugm-3,11.04474,R,ugm-3,13.23012,R,ugm-3
11-01-2020,13:00,1.52707,R,ugm-3,12.14367,R,ugm-3,14.48515,R,ugm-3
11-01-2020,14:00,1.73068,R,ugm-3,11.93606,R,ugm-3,14.58974,R,ugm-3
11-01-2020,15:00,1.69675,R,ugm-3,12.51102,R,ugm-3,15.11267,R,ugm-3
11-01-2020,16:00,1.52707,R,ugm-3,11.30699,R,ugm-3,13.64846,R,ugm-3
11-01-2020,17:00,1.25559,R,ugm-3,9.68382,R,ugm-3,11.60904,R,ugm-3
11-01-2020,18:00,1.39133,R,ugm-3,9.21423,R,ugm-3,11.34757,R,ugm-3
11-01-2020,19:00,1.18772,R,ugm-3,8.42827,R,ugm-3,10.24942,R,ugm-3
11-01-2020,20:00,0.98411,R,ugm-3,9.36798,R,ugm-3,10.87694,R,ugm-3
11-01-2020,21:00,1.11985,R,ugm-3,8.95068,R,ugm-3,10.66777,R,ugm-3
11-01-2020,22:00,0.88231,R,ugm-3,6.07275,R,ugm-3,7.42560,R,ugm-3
11-01-2020,23:00,0.61083,R,ugm-3,4.92022,R,ugm-3,5.85681,R,ugm-3
11-01-2020,24:00,0.50902,R,ugm-3,4.50110,R,ugm-3,5.28159,R,ugm-3
12-01-2020,01:00,0.49786,R,ugm-3,3.49044,R,ugm-3,4.25382,R,ugm-3
12-01-2020,02:00,0.54312,R,ugm-3,2.72369,R,ugm-3,3.55647,R,ugm-3
12-01-2020,03:00,0.27156,R,ugm-3,2.98318,R,ugm-3,3.39956,R,ugm-3
12-01-2020,04:00,0.44129,R,ugm-3,4.97188,R,ugm-3,5.64851,R,ugm-3
12-01-2020,05:00,0.54312,R,ugm-3,5.39104,R,ugm-3,6.22382,R,ugm-3
12-01-2020,06:00,0.61101,R,ugm-3,6.01916,R,ugm-3,6.95603,R,ugm-3
12-01-2020,07:00,0.64496,R,ugm-3,8.05915,R,ugm-3,9.04807,R,ugm-3
12-01-2020,08:00,0.50918,R,ugm-3,6.12301,R,ugm-3,6.90373,R,ugm-3
12-01-2020,09:00,0.54312,R,ugm-3,7.22158,R,ugm-3,8.05435,R,ugm-3
12-01-2020,10:00,0.98441,R,ugm-3,7.85247,R,ugm-3,9.36188,R,ugm-3
12-01-2020,11:00,1.86698,R,ugm-3,13.40295,R,ugm-3,16.26561,R,ugm-3
12-01-2020,12:00,1.66331,R,ugm-3,14.70896,R,ugm-3,17.25933,R,ugm-3
12-01-2020,13:00,1.90093,R,ugm-3,10.57894,R,ugm-3,13.49366,R,ugm-3
12-01-2020,14:00,1.56148,R,ugm-3,9.37350,R,ugm-3,11.76773,R,ugm-3
12-01-2020,15:00,2.07065,R,ugm-3,14.24128,R,ugm-3,17.41623,R,ugm-3
12-01-2020,16:00,3.29268,R,ugm-3,21.25870,R,ugm-3,26.30740,R,ugm-3
12-01-2020,17:00,1.90093,R,ugm-3,23.65419,R,ugm-3,26.56891,R,ugm-3
12-01-2020,18:00,3.05506,R,ugm-3,33.07696,R,ugm-3,37.76132,R,ugm-3
12-01-2020,19:00,4.31103,R,ugm-3,39.93773,R,ugm-3,46.54789,R,ugm-3
12-01-2020,20:00,1.86698,R,ugm-3,19.73137,R,ugm-3,22.59403,R,ugm-3
12-01-2020,21:00,1.18808,R,ugm-3,18.10499,R,ugm-3,19.92668,R,ugm-3
12-01-2020,22:00,0.98441,R,ugm-3,16.69134,R,ugm-3,18.20075,R,ugm-3
12-01-2020,23:00,0.95046,R,ugm-3,11.67019,R,ugm-3,13.12755,R,ugm-3
12-01-2020,24:00,0.54312,R,ugm-3,8.21530,R,ugm-3,9.04807,R,ugm-3
13-01-2020,01:00,0.63383,R,ugm-3,6.97911,R,ugm-3,7.95097,R,ugm-3
13-01-2020,02:00,0.58856,R,ugm-3,4.46795,R,ugm-3,5.37039,R,ugm-3
13-01-2020,03:00,0.40746,R,ugm-3,4.50152,R,ugm-3,5.12629,R,ugm-3
13-01-2020,04:00,0.64515,R,ugm-3,4.39861,R,ugm-3,5.38783,R,ugm-3
13-01-2020,05:00,0.74702,R,ugm-3,5.86400,R,ugm-3,7.00941,R,ugm-3
13-01-2020,06:00,1.39217,R,ugm-3,9.63491,R,ugm-3,11.76953,R,ugm-3
13-01-2020,07:00,3.49740,R,ugm-3,17.70568,R,ugm-3,23.06828,R,ugm-3
13-01-2020,08:00,4.82166,R,ugm-3,30.11248,R,ugm-3,37.50558,R,ugm-3
13-01-2020,09:00,5.97614,R,ugm-3,33.41627,R,ugm-3,42.57956,R,ugm-3
13-01-2020,10:00,6.01009,R,ugm-3,33.57344,R,ugm-3,42.78879,R,ugm-3
13-01-2020,11:00,6.14591,R,ugm-3,29.80817,R,ugm-3,39.23178,R,ugm-3
13-01-2020,12:00,3.70113,R,ugm-3,17.02714,R,ugm-3,22.70212,R,ugm-3
13-01-2020,13:00,3.22576,R,ugm-3,15.19289,R,ugm-3,20.13898,R,ugm-3
13-01-2020,14:00,3.12389,R,ugm-3,14.25059,R,ugm-3,19.04049,R,ugm-3
13-01-2020,15:00,2.95411,R,ugm-3,13.72628,R,ugm-3,18.25585,R,ugm-3
13-01-2020,16:00,2.92016,R,ugm-3,15.29530,R,ugm-3,19.77282,R,ugm-3
13-01-2020,17:00,2.47874,R,ugm-3,13.87977,R,ugm-3,17.68045,R,ugm-3
13-01-2020,18:00,1.56195,R,ugm-3,10.00229,R,ugm-3,12.39724,R,ugm-3
13-01-2020,19:00,1.86754,R,ugm-3,16.17696,R,ugm-3,19.04049,R,ugm-3
13-01-2020,20:00,1.49404,R,ugm-3,16.01734,R,ugm-3,18.30816,R,ugm-3
13-01-2020,21:00,1.18844,R,ugm-3,10.20884,R,ugm-3,12.03108,R,ugm-3
13-01-2020,22:00,1.29030,R,ugm-3,9.73879,R,ugm-3,11.71722,R,ugm-3
13-01-2020,23:00,0.61120,R,ugm-3,7.43229,R,ugm-3,8.36945,R,ugm-3
13-01-2020,24:00,0.78097,R,ugm-3,6.70119,R,ugm-3,7.89867,R,ugm-3
14-01-2020,01:00,0.45287,R,ugm-3,4.60707,R,ugm-3,5.30146,R,ugm-3
14-01-2020,02:00,0.54345,R,ugm-3,3.28233,R,ugm-3,4.11561,R,ugm-3
14-01-2020,03:00,0.47552,R,ugm-3,3.03771,R,ugm-3,3.76683,R,ugm-3
14-01-2020,04:00,0.44155,R,ugm-3,2.82821,R,ugm-3,3.50524,R,ugm-3
14-01-2020,05:00,0.88310,R,ugm-3,5.02861,R,ugm-3,6.38268,R,ugm-3
14-01-2020,06:00,1.18879,R,ugm-3,9.73928,R,ugm-3,11.56207,R,ugm-3
14-01-2020,07:00,2.27569,R,ugm-3,17.28054,R,ugm-3,20.76988,R,ugm-3
14-01-2020,08:00,3.56638,R,ugm-3,21.42260,R,ugm-3,26.89097,R,ugm-3
14-01-2020,09:00,3.90603,R,ugm-3,25.66266,R,ugm-3,31.65183,R,ugm-3
14-01-2020,10:00,3.43052,R,ugm-3,22.72958,R,ugm-3,27.98963,R,ugm-3
14-01-2020,11:00,3.53241,R,ugm-3,21.42237,R,ugm-3,26.83866,R,ugm-3
14-01-2020,12:00,4.72121,R,ugm-3,25.98226,R,ugm-3,33.22134,R,ugm-3
14-01-2020,13:00,2.71724,R,ugm-3,18.59155,R,ugm-3,22.75793,R,ugm-3
14-01-2020,14:00,3.26069,R,ugm-3,11.58486,R,ugm-3,16.58451,R,ugm-3
14-01-2020,15:00,2.44552,R,ugm-3,12.52087,R,ugm-3,16.27061,R,ugm-3
14-01-2020,16:00,2.41155,R,ugm-3,10.95112,R,ugm-3,14.64878,R,ugm-3
14-01-2020,17:00,1.73224,R,ugm-3,12.56820,R,ugm-3,15.22427,R,ugm-3
14-01-2020,18:00,1.69828,R,ugm-3,12.09711,R,ugm-3,14.70110,R,ugm-3
14-01-2020,19:00,1.42655,R,ugm-3,12.67070,R,ugm-3,14.85805,R,ugm-3
14-01-2020,20:00,1.52845,R,ugm-3,12.72373,R,ugm-3,15.06732,R,ugm-3
14-01-2020,21:00,0.84914,R,ugm-3,10.20776,R,ugm-3,11.50976,R,ugm-3
14-01-2020,22:00,0.78121,R,ugm-3,9.78875,R,ugm-3,10.98658,R,ugm-3
14-01-2020,23:00,0.78121,R,ugm-3,9.37022,R,ugm-3,10.56805,R,ugm-3
14-01-2020,24:00,1.12086,R,ugm-3,10.05271,R,ugm-3,11.77134,R,ugm-3
15-01-2020,01:00,0.90602,R,ugm-3,9.07581,R,ugm-3,10.46502,R,ugm-3
15-01-2020,02:00,0.58891,R,ugm-3,6.42253,R,ugm-3,7.32551,R,ugm-3
15-01-2020,03:00,0.61156,R,ugm-3,5.34130,R,ugm-3,6.27901,R,ugm-3
15-01-2020,04:00,0.64554,R,ugm-3,5.76013,R,ugm-3,6.74994,R,ugm-3
15-01-2020,05:00,0.81542,R,ugm-3,5.13338,R,ugm-3,6.38366,R,ugm-3
15-01-2020,06:00,1.59686,R,ugm-3,11.83627,R,ugm-3,14.28475,R,ugm-3
15-01-2020,07:00,3.02384,R,ugm-3,20.27026,R,ugm-3,24.90675,R,ugm-3
15-01-2020,08:00,4.96045,R,ugm-3,30.95768,R,ugm-3,38.56360,R,ugm-3
15-01-2020,09:00,4.51877,R,ugm-3,33.10003,R,ugm-3,40.02870,R,ugm-3
15-01-2020,10:00,10.87222,R,ugm-3,42.03826,R,ugm-3,58.70877,R,ugm-3
15-01-2020,11:00,6.55731,R,ugm-3,32.53824,R,ugm-3,42.59263,R,ugm-3
15-01-2020,12:00,5.47009,R,ugm-3,23.32166,R,ugm-3,31.70901,R,ugm-3
15-01-2020,13:00,5.67394,R,ugm-3,24.78815,R,ugm-3,33.48807,R,ugm-3
15-01-2020,14:00,5.19828,R,ugm-3,23.42448,R,ugm-3,31.39506,R,ugm-3
15-01-2020,15:00,5.36816,R,ugm-3,25.25701,R,ugm-3,33.48807,R,ugm-3
15-01-2020,16:00,3.66937,R,ugm-3,23.36181,R,ugm-3,28.98811,R,ugm-3
15-01-2020,17:00,4.17901,R,ugm-3,28.02219,R,ugm-3,34.42992,R,ugm-3
15-01-2020,18:00,3.26167,R,ugm-3,25.71368,R,ugm-3,30.71484,R,ugm-3
15-01-2020,19:00,2.54818,R,ugm-3,27.33094,R,ugm-3,31.23809,R,ugm-3
15-01-2020,20:00,1.80071,R,ugm-3,22.51197,R,ugm-3,25.27303,R,ugm-3